This demonstration page uses our WeatherBlox Daily Observations layout. Learn more.

Hourly Observations for November 11, 2018

Temp ( °F °C ) Dew Point ( °F °C ) Humidity (%) Winds ( mph kmh ) Pressure ( in mb ) Visibility ( mi km ) Precip ( " mm )
12:15 am 00:15 Clear 24 -4.5 23 -4.8 98 98 NW 6 9 30.27 1025 7 11.265408 0 0
12:35 am 00:35 Clear 25 -4 24 -4.2 99 99 NW 5 7 30.27 1025 10 16.09344 0 0
12:50 am 00:50 Clear 24 -4.7 23 -5 98 98 NW 3 6 30.27 1025 10 16.09344 0 0
1:15 am 01:15 Clear 23 -5.2 22 -5.5 98 98 NW 3 6 30.27 1025 7 11.265408 0 0
1:35 am 01:35 Clear 22 -5.5 22 -5.5 100 100 NNW 5 7 30.3 1026 7 11.265408 0 0
1:55 am 01:55 Clear 25 -3.8 25 -4.1 98 98 NNW 9 15 30.27 1025 10 16.09344 0 0
2:15 am 02:15 Clear 26 -3.4 25 -4.1 95 95 NNW 9 15 30.27 1025 10 16.09344 0 0
2:35 am 02:35 Clear 25 -3.8 24 -4.6 94 94 NNW 7 11 30.27 1025 10 16.09344 0 0
2:55 am 02:55 Clear 25 -4 24 -4.7 95 95 NNW 8 13 30.27 1025 10 16.09344 0 0
3:15 am 03:15 Clear 26 -3.6 24 -4.4 94 94 NNW 6 9 30.27 1025 10 16.09344 0 0
3:35 am 03:35 Clear 26 -3.1 25 -3.8 95 95 N 6 9 30.27 1025 10 16.09344 0 0
3:55 am 03:55 Clear 27 -2.6 26 -3.2 96 96 NNW 5 7 30.27 1025 10 16.09344 0 0
4:15 am 04:15 Clear 28 -2.5 27 -3 96 96 NNW 7 11 30.27 1025 10 16.09344 0 0
4:35 am 04:35 Clear 28 -2 28 -2.5 96 96 N 6 9 30.24 1024 10 16.09344 0 0
4:55 am 04:55 Clear 30 -1.2 29 -1.7 96 96 N 8 13 30.24 1024 10 16.09344 0 0
5:15 am 05:15 Clear 31 -0.8 29 -1.6 94 94 NNW 8 13 30.24 1024 10 16.09344 0 0
5:35 am 05:35 Clear 31 -0.6 28 -2 90 90 N 8 13 30.24 1024 10 16.09344 0 0
5:55 am 05:55 Partly Cloudy 30 -0.9 28 -2.5 89 89 N 5 7 30.27 1025 10 16.09344 0 0
6:15 am 06:15 Partly Cloudy 30 -1.2 27 -2.7 90 90 N 5 7 30.27 1025 10 16.09344 0 0
6:35 am 06:35 Mostly Cloudy 29 -1.4 27 -2.8 90 90 Calm 30.27 1025 10 16.09344 0 0
6:55 am 06:55 Partly Cloudy 29 -1.6 27 -2.7 92 92 Calm 30.3 1026 10 16.09344 0 0
7:15 am 07:15 Partly Cloudy 29 -1.9 26 -3.1 92 92 Calm 30.33 1027 10 16.09344 0 0
7:35 am 07:35 Sunny 29 -1.9 27 -3 92 92 N 6 9 30.33 1027 10 16.09344 0 0
7:55 am 07:55 Mostly Cloudy 29 -1.5 27 -3 90 90 N 6 9 30.3 1026 10 16.09344 0 0
8:15 am 08:15 Mostly Cloudy 29 -1.5 27 -3 90 90 N 6 9 30.3 1026 10 16.09344 0 0
8:35 am 08:35 Partly Cloudy 29 -1.6 27 -3 90 90 N 5 7 30.3 1026 10 16.09344 0 0
8:55 am 08:55 Partly Cloudy 30 -1.3 28 -2.5 92 92 N 5 7 30.33 1027 10 16.09344 0 0
9:15 am 09:15 Mostly Cloudy 30 -1 28 -2.2 92 92 N 6 9 30.33 1027 10 16.09344 0 0
9:35 am 09:35 Mostly Cloudy 32 -0.2 29 -1.9 88 88 NNE 8 13 30.36 1028 10 16.09344 0 0
9:55 am 09:55 Cloudy 32 0 29 -1.6 89 89 NNE 8 13 30.36 1028 10 16.09344 0 0
10:15 am 10:15 Cloudy 32 0.1 29 -1.6 88 88 NNE 13 20 30.36 1028 10 16.09344 0 0
10:35 am 10:35 Cloudy 32 0.2 29 -1.6 88 88 NNE 12 19 30.36 1028 10 16.09344 0 0
10:55 am 10:55 Cloudy 33 0.6 29 -1.5 86 86 NNE 10 17 30.36 1028 10 16.09344 0 0
11:15 am 11:15 Cloudy 33 0.8 29 -1.8 83 83 NNE 10 17 30.36 1028 10 16.09344 0 0
11:35 am 11:35 Cloudy 33 0.8 28 -2.1 81 81 NNE 12 19 30.36 1028 10 16.09344 0 0
11:55 am 11:55 Cloudy 34 1 29 -1.9 81 81 NNE 9 15 30.36 1028 10 16.09344 0 0
12:15 pm 12:15 Cloudy 35 1.5 29 -1.7 80 80 NNE 9 15 30.36 1028 10 16.09344 0 0
12:35 pm 12:35 Cloudy 35 1.5 28 -2.2 77 77 NNE 9 15 30.36 1028 10 16.09344 0 0
12:55 pm 12:55 Mostly Cloudy 35 1.5 28 -2.5 75 75 NNE 7 11 30.36 1028 10 16.09344 0 0
1:15 pm 13:15 Cloudy 35 1.5 28 -2.4 76 76 NNE 6 9 30.33 1027 10 16.09344 0 0
1:35 pm 13:35 Cloudy 35 1.5 28 -2.2 77 77 NNE 3 6 30.33 1027 10 16.09344 0 0
1:55 pm 13:55 Cloudy 35 1.5 27 -2.7 74 74 Calm 30.33 1027 10 16.09344 0 0
2:15 pm 14:15 Cloudy 35 1.6 27 -2.7 73 73 Calm 30.3 1026 10 16.09344 0 0
2:35 pm 14:35 Cloudy 36 2 28 -2.3 73 73 Calm 30.3 1026 10 16.09344 0 0
2:55 pm 14:55 Cloudy with Light Snow 35 1.5 29 -1.4 81 81 WNW 6 9 30.33 1027 5 8.04672 0 0
3:15 pm 15:15 Cloudy 35 1.6 29 -1.9 78 78 N 6 9 30.3 1026 10 16.09344 0 0
3:35 pm 15:35 Cloudy 36 2 27 -2.7 71 71 NNW 5 7 30.3 1026 10 16.09344 0 0
3:55 pm 15:55 Cloudy 35 1.9 27 -2.7 72 72 N 12 19 30.33 1027 10 16.09344 0 0
4:15 pm 16:15 Cloudy 34 1.2 26 -3.4 72 72 N 8 13 30.36 1028 10 16.09344 0 0
4:35 pm 16:35 Cloudy 34 1 26 -3.3 73 73 N 9 15 30.36 1028 10 16.09344 0 0
4:55 pm 16:55 Cloudy 33 0.7 26 -3.1 76 76 N 10 17 30.36 1028 10 16.09344 0 0
5:15 pm 17:15 Cloudy 33 0.5 26 -3.2 77 77 N 8 13 30.36 1028 10 16.09344 0 0
5:35 pm 17:35 Cloudy 32 0.2 26 -3.1 79 79 N 12 19 30.36 1028 10 16.09344 0 0
5:55 pm 17:55 Cloudy 32 0.1 27 -2.8 81 81 N 8 13 30.36 1028 10 16.09344 0 0
6:15 pm 18:15 Cloudy 32 0 27 -2.7 82 82 NNE 6 9 30.39 1029 10 16.09344 0 0
6:35 pm 18:35 Cloudy 32 0 27 -2.6 83 83 NNE 5 7 30.39 1029 10 16.09344 0 0
6:55 pm 18:55 Cloudy 32 -0.1 27 -2.8 82 82 NNE 5 7 30.39 1029 10 16.09344 0 0
7:15 pm 19:15 Cloudy 31 -0.3 27 -2.7 84 84 NNE 3 6 30.39 1029 10 16.09344 0 0
7:35 pm 19:35 Cloudy 31 -0.5 28 -2.5 87 87 Calm 30.39 1029 10 16.09344 0 0
7:55 pm 19:55 Cloudy 31 -0.5 28 -2.5 87 87 N 3 6 30.39 1029 10 16.09344 0 0
8:15 pm 20:15 Cloudy 31 -0.7 27 -2.6 87 87 NNW 3 6 30.45 1031 10 16.09344 0 0
8:35 pm 20:35 Mostly Cloudy 31 -0.5 26 -3.2 82 82 N 5 7 30.42 1030 10 16.09344 0 0
8:55 pm 20:55 Partly Cloudy 31 -0.6 26 -3.3 82 82 NNW 6 9 30.42 1030 10 16.09344 0 0
9:15 pm 21:15 Partly Cloudy 31 -0.5 26 -3.6 80 80 N 9 15 30.42 1030 10 16.09344 0 0
9:35 pm 21:35 Partly Cloudy 31 -0.6 25 -3.8 79 79 N 7 11 30.48 1032 10 16.09344 0 0
9:55 pm 21:55 Mostly Cloudy 30 -1 25 -3.9 81 81 NNE 8 13 30.48 1032 10 16.09344 0 0
10:15 pm 22:15 Mostly Cloudy 30 -1.2 25 -3.7 83 83 N 7 11 30.48 1032 10 16.09344 0 0
10:35 pm 22:35 Partly Cloudy 29 -1.5 25 -3.9 84 84 N 7 11 30.5 1033 10 16.09344 0 0
10:55 pm 22:55 Partly Cloudy 28 -2 25 -4 86 86 N 6 9 30.5 1033 10 16.09344 0 0
11:15 pm 23:15 Clear 28 -2 24 -4.2 85 85 N 6 9 30.5 1033 10 16.09344 0 0
11:35 pm 23:35 Clear 27 -2.6 24 -4.5 87 87 NNE 6 9 30.48 1032 10 16.09344 0 0
11:55 pm 23:55 Clear 26 -3.1 23 -4.8 88 88 NNE 7 11 30.48 1032 10 16.09344 0 0

Powered by AerisWeather